Radiation Dose at Monitoring Post of Fukushima Daini Nuclear Power Station
Date,Time,MP-1(microSv/h),MP-2(microSv/h),MP-3(microSv/h),MP-4(microSv/h),MP-5(microSv/h),MP-6(microSv/h),MP-7(microSv/h),Wind Direction,Wind Velocity(m/s),Rain
2016/12/18,00:00,0.384,0.232,0.399,0.370,0.340,0.191,0.163,north,0.6,No
2016/12/18,00:10,0.385,0.232,0.399,0.369,0.341,0.192,0.164,northwest,1.1,No
2016/12/18,00:20,0.383,0.232,0.398,0.370,0.341,0.191,0.165,west-northwest,1.1,No
2016/12/18,00:30,0.385,0.232,0.398,0.369,0.340,0.191,0.164,-,CALM,No
2016/12/18,00:40,0.383,0.232,0.400,0.369,0.340,0.191,0.164,west-southwest,1.0,No
2016/12/18,00:50,0.383,0.232,0.399,0.369,0.340,0.192,0.164,north,1.0,No
2016/12/18,01:00,0.383,0.233,0.400,0.371,0.339,0.191,0.164,north,1.0,No
2016/12/18,01:10,0.383,0.232,0.399,0.370,0.340,0.191,0.164,north,2.7,No
2016/12/18,01:20,0.384,0.231,0.398,0.369,0.339,0.191,0.164,north,1.8,No
2016/12/18,01:30,0.383,0.231,0.400,0.368,0.341,0.191,0.164,north,2.4,No
2016/12/18,01:40,0.384,0.231,0.399,0.369,0.340,0.191,0.162,north-northeast,2.5,No
2016/12/18,01:50,0.384,0.231,0.399,0.369,0.341,0.191,0.164,north-northeast,1.9,No
2016/12/18,02:00,0.384,0.232,0.399,0.370,0.340,0.192,0.164,north-northeast,2.1,No
2016/12/18,02:10,0.383,0.232,0.398,0.369,0.340,0.191,0.163,north,1.4,No
2016/12/18,02:20,0.382,0.233,0.398,0.369,0.340,0.191,0.163,north-northeast,1.1,No
2016/12/18,02:30,0.383,0.232,0.399,0.370,0.341,0.190,0.163,-,CALM,No
2016/12/18,02:40,0.386,0.231,0.399,0.370,0.340,0.191,0.163,north,1.2,No
2016/12/18,02:50,0.384,0.232,0.398,0.370,0.341,0.191,0.163,north-northeast,1.0,No
2016/12/18,03:00,0.383,0.231,0.398,0.370,0.339,0.191,0.164,east,1.2,No
2016/12/18,03:10,0.382,0.231,0.400,0.369,0.339,0.191,0.164,east-northeast,0.6,No
2016/12/18,03:20,0.383,0.232,0.399,0.370,0.340,0.192,0.164,-,CALM,No
2016/12/18,03:30,0.384,0.231,0.399,0.371,0.340,0.192,0.163,-,CALM,No
2016/12/18,03:40,0.383,0.231,0.399,0.368,0.340,0.191,0.164,south-southwest,1.5,No
2016/12/18,03:50,0.383,0.232,0.400,0.367,0.340,0.191,0.164,south,2.4,No
2016/12/18,04:00,0.383,0.231,0.399,0.370,0.341,0.191,0.164,south,2.2,No
2016/12/18,04:10,0.383,0.233,0.398,0.369,0.340,0.191,0.163,south-southwest,2.5,No
2016/12/18,04:20,0.383,0.231,0.398,0.369,0.340,0.190,0.164,south-southwest,4.3,No
2016/12/18,04:30,0.384,0.231,0.398,0.369,0.340,0.192,0.164,south-southwest,4.0,No
2016/12/18,04:40,0.383,0.231,0.398,0.367,0.339,0.191,0.163,southwest,3.9,No
2016/12/18,04:50,0.382,0.230,0.399,0.369,0.339,0.191,0.163,west-southwest,3.7,No
2016/12/18,05:00,0.383,0.231,0.398,0.369,0.340,0.191,0.164,west-southwest,3.5,No
2016/12/18,05:10,0.385,0.231,0.399,0.369,0.340,0.191,0.164,southwest,3.4,No
2016/12/18,05:20,0.383,0.232,0.399,0.369,0.340,0.192,0.163,southwest,2.8,No
2016/12/18,05:30,0.382,0.232,0.398,0.370,0.340,0.191,0.163,southwest,3.3,No
2016/12/18,05:40,0.382,0.231,0.398,0.369,0.340,0.192,0.164,west,3.6,No
2016/12/18,05:50,0.383,0.231,0.399,0.369,0.339,0.192,0.163,west,3.3,No
2016/12/18,06:00,0.383,0.231,0.399,0.370,0.340,0.191,0.164,west-northwest,2.9,No
2016/12/18,06:10,0.384,0.231,0.399,0.369,0.341,0.191,0.164,northwest,1.1,No
2016/12/18,06:20,0.382,0.231,0.398,0.370,0.340,0.191,0.164,-,CALM,No
2016/12/18,06:30,0.384,0.231,0.398,0.370,0.340,0.191,0.164,south-southwest,1.7,No
2016/12/18,06:40,0.384,0.232,0.399,0.371,0.340,0.191,0.165,south,2.8,No
2016/12/18,06:50,0.382,0.231,0.398,0.370,0.341,0.190,0.164,south,3.1,No
2016/12/18,07:00,0.381,0.231,0.397,0.369,0.340,0.190,0.163,south-southeast,3.5,No
2016/12/18,07:10,0.382,0.230,0.399,0.372,0.339,0.191,0.164,south,3.6,No
2016/12/18,07:20,0.384,0.231,0.399,0.370,0.340,0.191,0.164,south-southeast,3.7,No
2016/12/18,07:30,0.382,0.230,0.397,0.368,0.340,0.192,0.164,south,5.0,No
2016/12/18,07:40,0.383,0.232,0.397,0.367,0.340,0.191,0.163,south,4.3,No
2016/12/18,07:50,0.384,0.231,0.399,0.370,0.341,0.191,0.163,south-southwest,3.8,No
2016/12/18,08:00,0.382,0.229,0.398,0.368,0.340,0.192,0.163,south-southwest,5.5,No
2016/12/18,08:10,0.381,0.230,0.397,0.368,0.341,0.190,0.163,southwest,5.0,No
2016/12/18,08:20,0.383,0.231,0.397,0.368,0.341,0.191,0.164,south-southwest,5.3,No
2016/12/18,08:30,0.382,0.232,0.398,0.368,0.339,0.190,0.163,southwest,2.8,No
2016/12/18,08:40,0.383,0.231,0.399,0.368,0.341,0.190,0.164,south-southwest,2.1,No
2016/12/18,08:50,0.383,0.230,0.398,0.368,0.341,0.190,0.163,southwest,1.9,No
2016/12/18,09:00,0.382,0.230,0.396,0.367,0.339,0.191,0.164,west,0.7,No
2016/12/18,09:10,0.382,0.231,0.399,0.370,0.342,0.191,0.163,south-southwest,1.6,No
2016/12/18,09:20,0.383,0.230,0.397,0.366,0.339,0.191,0.163,southwest,1.9,No
2016/12/18,09:30,0.380,0.231,0.397,0.370,0.338,0.190,0.164,west-southwest,2.0,No
2016/12/18,09:40,0.382,0.231,0.399,0.368,0.342,0.192,0.162,south,2.8,No
2016/12/18,09:50,0.382,0.230,0.397,0.369,0.340,0.192,0.163,west-southwest,0.6,No
2016/12/18,10:00,0.382,0.230,0.398,0.368,0.338,0.191,0.163,southwest,2.5,No
2016/12/18,10:10,0.380,0.232,0.398,0.370,0.339,0.191,0.163,south,4.2,No
2016/12/18,10:20,0.383,0.232,0.398,0.368,0.338,0.191,0.163,south,5.9,No
2016/12/18,10:30,0.377,0.231,0.398,0.370,0.340,0.191,0.164,south,5.8,No
2016/12/18,10:40,0.380,0.231,0.398,0.370,0.337,0.192,0.163,south,4.6,No
2016/12/18,10:50,0.379,0.230,0.398,0.369,0.342,0.191,0.164,south,4.5,No
2016/12/18,11:00,0.382,0.231,0.398,0.370,0.337,0.191,0.164,west-southwest,3.6,No
2016/12/18,11:10,0.380,0.230,0.395,0.369,0.341,0.192,0.164,west,5.5,No
2016/12/18,11:20,0.381,0.231,0.397,0.368,0.337,0.191,0.163,west,5.7,No
2016/12/18,11:30,0.380,0.230,0.397,0.367,0.341,0.191,0.164,west-northwest,7.5,No
2016/12/18,11:40,0.379,0.231,0.397,0.369,0.338,0.190,0.163,west,3.4,No
2016/12/18,11:50,0.381,0.231,0.396,0.368,0.341,0.191,0.163,west,6.4,No
2016/12/18,12:00,0.385,0.231,0.397,0.369,0.339,0.190,0.163,west,6.2,No
2016/12/18,12:10,0.379,0.230,0.396,0.371,0.340,0.191,0.163,west-southwest,5.7,No
2016/12/18,12:20,0.382,0.233,0.396,0.366,0.341,0.191,0.165,west-southwest,5.0,No
2016/12/18,12:30,0.379,0.231,0.396,0.370,0.340,0.192,0.163,west,4.4,No
2016/12/18,12:40,0.381,0.233,0.398,0.367,0.340,0.192,0.163,west,4.5,No
2016/12/18,12:50,0.382,0.231,0.396,0.367,0.340,0.191,0.163,west,3.1,No
2016/12/18,13:00,0.383,0.233,0.396,0.368,0.341,0.190,0.164,west-northwest,4.8,No
2016/12/18,13:10,0.381,0.230,0.397,0.369,0.341,0.192,0.163,west-northwest,6.4,No
2016/12/18,13:20,0.384,0.232,0.400,0.369,0.341,0.191,0.162,west,9.0,No
2016/12/18,13:30,0.382,0.231,0.397,0.368,0.341,0.191,0.165,west,5.1,No
2016/12/18,13:40,0.384,0.232,0.399,0.371,0.340,0.192,0.162,west-northwest,5.1,No
2016/12/18,13:50,0.383,0.231,0.396,0.366,0.343,0.191,0.165,west-northwest,4.2,No
2016/12/18,14:00,0.382,0.232,0.402,0.372,0.340,0.191,0.164,west,2.7,No
2016/12/18,14:10,0.383,0.231,0.399,0.369,0.342,0.191,0.165,southwest,3.8,No
2016/12/18,14:20,0.382,0.233,0.399,0.370,0.340,0.191,0.163,southwest,3.0,No
2016/12/18,14:30,0.384,0.230,0.397,0.367,0.342,0.190,0.165,west-southwest,2.7,No
2016/12/18,14:40,0.382,0.232,0.400,0.372,0.341,0.190,0.164,southwest,2.5,No
2016/12/18,14:50,0.383,0.231,0.398,0.369,0.340,0.192,0.164,west,1.7,No
2016/12/18,15:00,0.382,0.232,0.398,0.370,0.341,0.191,0.164,west-southwest,1.3,No
2016/12/18,15:10,0.382,0.232,0.399,0.368,0.340,0.192,0.163,north-northwest,0.7,No
2016/12/18,15:20,0.382,0.231,0.398,0.371,0.342,0.192,0.164,west-northwest,1.0,No
2016/12/18,15:30,0.384,0.233,0.398,0.369,0.339,0.191,0.164,north,0.8,No
2016/12/18,15:40,0.381,0.233,0.397,0.371,0.341,0.192,0.165,north-northwest,3.3,No
2016/12/18,15:50,0.381,0.231,0.400,0.371,0.341,0.190,0.164,north-northwest,3.0,No
2016/12/18,16:00,0.384,0.232,0.397,0.369,0.340,0.192,0.164,west-northwest,2.9,No
2016/12/18,16:10,0.383,0.232,0.398,0.372,0.343,0.191,0.164,north-northwest,2.4,No
2016/12/18,16:20,0.383,0.232,0.398,0.370,0.341,0.192,0.164,northwest,2.5,No
2016/12/18,16:30,0.381,0.232,0.397,0.370,0.340,0.191,0.164,west,2.7,No
2016/12/18,16:40,0.381,0.231,0.400,0.372,0.343,0.191,0.164,west,2.5,No
2016/12/18,16:50,0.385,0.232,0.399,0.370,0.341,0.191,0.164,west-southwest,2.8,No
2016/12/18,17:00,0.383,0.231,0.399,0.373,0.339,0.192,0.165,west,2.2,No
2016/12/18,17:10,0.382,0.232,0.399,0.370,0.343,0.192,0.165,southwest,2.3,No
2016/12/18,17:20,0.383,0.232,0.397,0.371,0.340,0.190,0.164,southwest,1.5,No
2016/12/18,17:30,0.382,0.231,0.399,0.370,0.343,0.192,0.164,southwest,2.7,No
2016/12/18,17:40,0.385,0.232,0.398,0.369,0.341,0.190,0.164,west-southwest,2.4,No
2016/12/18,17:50,0.384,0.232,0.399,0.371,0.341,0.192,0.165,southwest,3.1,No
2016/12/18,18:00,0.381,0.231,0.399,0.370,0.343,0.192,0.164,southwest,4.7,No
2016/12/18,18:10,0.384,0.231,0.398,0.371,0.341,0.191,0.165,west-southwest,3.7,No
2016/12/18,18:20,0.384,0.231,0.398,0.373,0.342,0.192,0.164,west-southwest,2.9,No
2016/12/18,18:30,0.382,0.232,0.401,0.370,0.342,0.192,0.164,southwest,2.8,No
2016/12/18,18:40,0.385,0.233,0.398,0.371,0.339,0.192,0.164,south-southwest,4.9,No
2016/12/18,18:50,0.382,0.232,0.398,0.371,0.343,0.192,0.165,southwest,5.0,No
2016/12/18,19:00,0.382,0.232,0.400,0.368,0.341,0.192,0.164,southwest,3.9,No
2016/12/18,19:10,0.382,0.233,0.398,0.372,0.340,0.192,0.164,southwest,3.6,No
2016/12/18,19:20,0.383,0.232,0.400,0.370,0.344,0.191,0.165,southwest,4.1,No
2016/12/18,19:30,0.381,0.233,0.399,0.371,0.341,0.191,0.164,southwest,4.2,No
2016/12/18,19:40,0.383,0.232,0.399,0.372,0.342,0.192,0.163,southwest,4.5,No
2016/12/18,19:50,0.382,0.231,0.400,0.368,0.340,0.192,0.165,southwest,4.3,No
2016/12/18,20:00,0.382,0.233,0.396,0.369,0.340,0.192,0.165,southwest,3.9,No
2016/12/18,20:10,0.385,0.232,0.401,0.371,0.341,0.192,0.165,southwest,3.1,No
2016/12/18,20:20,0.382,0.232,0.399,0.369,0.340,0.191,0.165,southwest,2.5,No
2016/12/18,20:30,0.382,0.232,0.399,0.372,0.342,0.191,0.165,west-southwest,3.2,No
2016/12/18,20:40,0.383,0.234,0.400,0.372,0.341,0.192,0.164,west-southwest,4.2,No
2016/12/18,20:50,0.383,0.232,0.398,0.371,0.341,0.192,0.164,southwest,3.5,No
2016/12/18,21:00,0.382,0.232,0.398,0.371,0.341,0.192,0.165,southwest,3.4,No
2016/12/18,21:10,0.384,0.233,0.399,0.370,0.342,0.192,0.164,southwest,4.6,No
2016/12/18,21:20,0.382,0.232,0.398,0.371,0.341,0.191,0.164,southwest,4.7,No
2016/12/18,21:30,0.384,0.232,0.399,0.371,0.341,0.191,0.164,west-southwest,4.8,No
2016/12/18,21:40,0.384,0.232,0.401,0.370,0.341,0.190,0.165,southwest,5.4,No
2016/12/18,21:50,0.383,0.233,0.398,0.371,0.339,0.191,0.164,southwest,4.4,No
2016/12/18,22:00,0.385,0.231,0.401,0.371,0.341,0.191,0.164,southwest,6.4,No
2016/12/18,22:10,0.384,0.232,0.397,0.371,0.341,0.192,0.163,southwest,7.0,No
2016/12/18,22:20,0.382,0.233,0.398,0.371,0.341,0.192,0.164,west-southwest,7.3,No
2016/12/18,22:30,0.383,0.232,0.400,0.368,0.343,0.192,0.164,west-southwest,10.5,No
2016/12/18,22:40,0.383,0.232,0.398,0.372,0.342,0.191,0.164,west-southwest,7.8,No
2016/12/18,22:50,0.381,0.232,0.401,0.370,0.340,0.191,0.164,west-southwest,8.7,No
2016/12/18,23:00,0.384,0.232,0.398,0.372,0.343,0.191,0.165,west-southwest,8.1,No
2016/12/18,23:10,0.384,0.232,0.397,0.371,0.339,0.192,0.164,west-southwest,8.8,No
2016/12/18,23:20,0.383,0.233,0.400,0.370,0.339,0.192,0.165,southwest,5.7,No
2016/12/18,23:30,0.383,0.232,0.397,0.370,0.342,0.193,0.164,southwest,4.9,No
2016/12/18,23:40,0.382,0.233,0.401,0.370,0.342,0.192,0.163,southwest,6.8,No
2016/12/18,23:50,0.382,0.232,0.398,0.371,0.341,0.192,0.164,south-southwest,6.4,No
